Location: Ladysmith
(45.4630°N, 91.1040°W)
Time: 07:23:59
(UTC-05:00)

Amateur Radio Satellites - All Passes

Search period start: 19 April 2014 06:53
Search period end: 20 April 2014 06:53
Location: Ladysmith, 45.4630°N, 91.1040°W

Satellite Date Start Highest point End Downlink Frequencies (MHz)
Time Altitude Azimuth
KITSAT 1 19 Apr 06:57:34 07:03:18 20° 342° (NNW) 07:09:03 435.175 FM
Hamsat 19 Apr 07:03:28 07:07:41 47° 99° (E) 07:11:53 145.90 MHz
MaSat-1 19 Apr 07:08:55 07:11:45 63° 61° (ENE) 07:15:05 437.345 MHz
JAS-1B 19 Apr 07:17:37 07:20:16 14° 307° (NW) 07:22:54 435.800 - 435.900 CW/SSB
RS-15 19 Apr 07:19:10 07:30:14 64° 117° (ESE) 07:40:58 29.354 - 29.394 USB, Beacon 29.352 USB
Uosat F 19 Apr 07:19:12 07:20:16 11° 306° (NW) 07:21:19 435.120 FM
JAS-2 19 Apr 07:28:03 07:32:41 29° 96° (E) 07:37:39 435.800 - 435.900 CW/SSB, 435.910 FM
PCSat 19 Apr 07:41:21 07:43:44 13° 28° (NNE) 07:46:07 145.825 MHz
STRAND 1 19 Apr 08:14:25 08:17:49 18° 269° (W) 08:21:14 ?
AO-7 19 Apr 08:38:39 08:43:16 16° 318° (NW) 08:47:54 29.400 - 29.500 MHz
Sapphire 19 Apr 08:38:46 08:43:07 24° 41° (NE) 08:47:26 437.095 MHz 1200 baud AX-25 AFSK
Hamsat 19 Apr 08:40:15 08:43:21 19° 296° (WNW) 08:46:27 145.90 MHz
SO-67 19 Apr 08:42:43 08:46:12 62° 285° (WNW) 08:49:39 435.3500 MHz FM
KITSAT 1 19 Apr 08:56:58 09:02:20 18° 12° (NNE) 09:07:40 435.175 FM
JAS-2 19 Apr 09:12:58 09:17:56 42° 292° (WNW) 09:23:18 435.800 - 435.900 CW/SSB, 435.910 FM
PCSat 19 Apr 09:23:20 09:28:35 46° 51° (NE) 09:33:47 145.825 MHz
RS-15 19 Apr 09:32:22 09:43:04 48° 322° (NW) 09:53:35 29.354 - 29.394 USB, Beacon 29.352 USB
HO-68 19 Apr 09:37:24 09:43:54 35° 96° (E) 09:50:21 435.675 MHz FM
Oscar 11 19 Apr 10:14:12 10:17:55 27° 95° (E) 10:21:36 145.825 FM, Beacon 2401.500 USB
Sapphire 19 Apr 10:21:40 10:27:06 73° 241° (WSW) 10:32:28 437.095 MHz 1200 baud AX-25 AFSK
KITSAT 1 19 Apr 10:52:53 11:00:24 39° 40° (NE) 11:07:51 435.175 FM
PCSat 19 Apr 11:07:07 11:11:48 30° 250° (WSW) 11:16:28 145.825 MHz
HO-68 19 Apr 11:24:55 11:31:47 51° 295° (WNW) 11:38:39 435.675 MHz FM
Saudisat 1A 19 Apr 11:33:18 11:37:40 55° 121° (ESE) 11:42:02 436.775 MHz
FUNcube-1 19 Apr 11:39:18 11:43:33 69° 102° (ESE) 11:47:52 145.950 - 145.970 MHz USB
RS-15 19 Apr 11:49:51 11:58:53 28° 355° (N) 12:07:53 29.354 - 29.394 USB, Beacon 29.352 USB
Oscar 11 19 Apr 11:50:15 11:54:07 32° 292° (WNW) 11:57:59 145.825 FM, Beacon 2401.500 USB
Sapphire 19 Apr 12:08:47 12:09:31 10° 259° (W) 12:10:16 437.095 MHz 1200 baud AX-25 AFSK
Uribyol 2 19 Apr 12:23:47 12:24:16 10° 53° (NE) 12:24:44 436.500 FM
KITSAT 1 19 Apr 12:48:18 12:56:18 65° 243° (WSW) 13:04:13 435.175 FM
AO-27 19 Apr 13:00:08 13:03:55 21° 60° (ENE) 13:07:41 436.795 MHz FM
ITAMSAT 1 19 Apr 13:10:26 13:14:33 25° 62° (ENE) 13:18:41 435.822 SSB
Saudisat 1A 19 Apr 13:13:53 13:17:34 25° 320° (NW) 13:21:16 436.775 MHz
Oscar 19 19 Apr 13:14:31 13:19:23 45° 69° (ENE) 13:24:18 437.125 CW, 437.150 USB
HO-68 19 Apr 13:15:24 13:17:53 12° 317° (NW) 13:20:21 435.675 MHz FM
FUNcube-1 19 Apr 13:17:24 13:19:29 14° 299° (WNW) 13:21:34 145.950 - 145.970 MHz USB
AO-Echo 19 Apr 13:18:28 13:22:29 23° 63° (ENE) 13:26:26 ?
Oscar 16 19 Apr 13:22:37 13:27:37 57° 71° (ENE) 13:32:41 437.025 USB, Beacon 2401.1428
TMSAT-1 19 Apr 13:42:19 13:44:16 12° 54° (NE) 13:46:14 436.925 FM
Uribyol 2 19 Apr 13:57:39 14:02:44 64° 72° (ENE) 14:07:51 436.500 FM
AO-7 19 Apr 14:05:10 14:09:39 16° 41° (NE) 14:14:07 29.400 - 29.500 MHz
RS-15 19 Apr 14:05:15 14:15:16 38° 29° (NNE) 14:25:22 29.354 - 29.394 USB, Beacon 29.352 USB
JAS-1B 19 Apr 14:23:10 14:28:35 22° 59° (ENE) 14:33:25 435.800 - 435.900 CW/SSB
OPAL 19 Apr 14:27:55 14:28:54 11° 88° (E) 14:29:54 ?
Gurwin Techsat 1B 19 Apr 14:30:15 14:35:09 40° 67° (ENE) 14:40:05 435.225 FM
Oscar 10/S400 19 Apr 14:33:07 15:40:48 18° 269° (W) 17:37:52 145.825 - 145.975 CW/USB, Beacon 145.810 USB
AO-27 19 Apr 14:37:52 14:43:00 61° 258° (WSW) 14:48:09 436.795 MHz FM
KITSAT 1 19 Apr 14:47:00 14:50:05 13° 263° (W) 14:53:10 435.175 FM
ITAMSAT 1 19 Apr 14:48:45 14:53:46 49° 260° (W) 14:58:48 435.822 SSB
ISS 19 Apr 14:49:17 14:50:24 11° 131° (SE) 14:51:32 145.800 FM
Oscar 19 19 Apr 14:54:44 14:58:56 25° 267° (W) 15:03:11 437.125 CW, 437.150 USB
AO-Echo 19 Apr 14:55:49 15:00:56 53° 260° (W) 15:05:57 ?
Oscar 16 19 Apr 15:03:39 15:07:21 20° 269° (W) 15:11:06 437.025 USB, Beacon 2401.1428
Uosat F 19 Apr 15:15:06 15:19:22 29° 64° (ENE) 15:23:38 435.120 FM
TMSAT-1 19 Apr 15:18:01 15:23:17 74° 73° (ENE) 15:28:35 436.925 FM
Uribyol 2 19 Apr 15:39:14 15:42:40 18° 269° (W) 15:46:08 436.500 FM
SO-50 19 Apr 15:50:32 15:54:48 46° 119° (ESE) 15:59:08 436.795 FM
AO-7 19 Apr 15:52:42 16:00:44 58° 63° (ENE) 16:08:47 29.400 - 29.500 MHz
OPAL 19 Apr 16:03:21 16:08:36 79° 106° (ESE) 16:13:49 ?
Gurwin Techsat 1B 19 Apr 16:10:35 16:15:12 30° 265° (W) 16:19:51 435.225 FM
JAS-1B 19 Apr 16:10:36 16:18:42 83° 255° (WSW) 16:25:26 435.800 - 435.900 CW/SSB
RS-15 19 Apr 16:18:01 16:29:00 86° 237° (WSW) 16:40:14 29.354 - 29.394 USB, Beacon 29.352 USB
ISS 19 Apr 16:23:17 16:26:37 73° 148° (SSE) 16:29:58 145.800 FM
Uosat F 19 Apr 16:53:18 16:58:00 39° 262° (W) 17:02:44 435.120 FM
TMSAT-1 19 Apr 17:00:38 17:03:47 16° 271° (W) 17:06:57 436.925 FM
SO-50 19 Apr 17:31:41 17:35:34 28° 319° (NW) 17:39:29 436.795 FM
OPAL 19 Apr 17:43:32 17:46:52 17° 304° (NW) 17:50:11 ?
JAS-2 19 Apr 17:45:02 17:48:22 17° 59° (ENE) 17:51:35 435.800 - 435.900 CW/SSB, 435.910 FM
AO-7 19 Apr 17:46:26 17:53:51 36° 263° (W) 18:01:20 29.400 - 29.500 MHz
Hamsat 19 Apr 17:59:09 18:03:07 43° 71° (ENE) 18:07:10 145.90 MHz
ISS 19 Apr 18:00:30 18:03:35 33° 347° (NNW) 18:06:40 145.800 FM
JAS-1B 19 Apr 18:05:36 18:09:59 16° 271° (W) 18:14:01 435.800 - 435.900 CW/SSB
UOSAT-12 19 Apr 18:12:45 18:17:16 67° 122° (ESE) 18:21:54 437.025 FM, 437.400 FM
Saudisat 1A 19 Apr 18:19:28 18:22:21 17° 33° (NNE) 18:25:12 436.775 MHz
RS-15 19 Apr 18:31:52 18:39:46 24° 259° (W) 18:47:51 29.354 - 29.394 USB, Beacon 29.352 USB
STRAND 1 19 Apr 18:42:38 18:46:02 18° 91° (E) 18:49:24 ?
SO-67 19 Apr 19:18:19 19:21:45 59° 75° (ENE) 19:25:13 435.3500 MHz FM
JAS-2 19 Apr 19:27:09 19:32:58 79° 256° (WSW) 19:38:19 435.800 - 435.900 CW/SSB, 435.910 FM
Hamsat 19 Apr 19:36:24 19:39:21 18° 269° (W) 19:42:19 145.90 MHz
ISS 19 Apr 19:37:56 19:40:56 29° 8° (N) 19:43:55 145.800 FM
UOSAT-12 19 Apr 19:54:12 19:57:52 23° 323° (NW) 20:01:36 437.025 FM, 437.400 FM
Saudisat 1A 19 Apr 19:58:12 20:02:39 84° 54° (NE) 20:07:02 436.775 MHz
HO-68 19 Apr 20:08:34 20:14:50 35° 60° (ENE) 20:21:08 435.675 MHz FM
STRAND 1 19 Apr 20:20:37 20:25:40 63° 288° (WNW) 20:30:41 ?
Oscar 11 19 Apr 21:11:35 21:15:16 28° 67° (ENE) 21:18:58 145.825 FM, Beacon 2401.500 USB
ISS 19 Apr 21:14:40 21:18:02 76° 27° (NNE) 21:21:23 145.800 FM
MaSat-1 19 Apr 21:15:44 21:17:23 14° 111° (ESE) 21:18:56 437.345 MHz
JAS-2 19 Apr 21:18:22 21:18:51 10° 273° (W) 21:19:19 435.800 - 435.900 CW/SSB, 435.910 FM
Saudisat 1A 19 Apr 21:39:52 21:41:35 12° 252° (WSW) 21:43:18 436.775 MHz
HO-68 19 Apr 21:55:20 22:02:16 53° 259° (W) 22:09:16 435.675 MHz FM
FUNcube-1 19 Apr 22:38:07 22:42:18 73° 75° (ENE) 22:46:28 145.950 - 145.970 MHz USB
SO-50 19 Apr 22:40:15 22:43:17 17° 33° (NNE) 22:46:19 436.795 FM
Oscar 11 19 Apr 22:47:37 22:51:24 30° 264° (W) 22:55:13 145.825 FM, Beacon 2401.500 USB
ISS 19 Apr 22:52:04 22:54:27 18° 225° (SW) 22:56:49 145.800 FM
MaSat-1 19 Apr 22:53:29 22:55:40 21° 304° (NW) 22:57:42 437.345 MHz
PCSat 20 Apr 00:08:15 00:12:36 25° 108° (ESE) 00:16:58 145.825 MHz
FUNcube-1 20 Apr 00:18:15 00:19:14 11° 272° (W) 00:20:13 145.950 - 145.970 MHz USB
SO-50 20 Apr 00:19:56 00:24:36 78° 53° (NE) 00:29:18 436.795 FM
UOSAT-12 20 Apr 01:00:51 01:04:26 21° 36° (NE) 01:08:01 437.025 FM, 437.400 FM
Sapphire 20 Apr 01:05:22 01:10:43 68° 118° (ESE) 01:16:07 437.095 MHz 1200 baud AX-25 AFSK
Oscar 19 20 Apr 01:25:34 01:28:01 13° 88° (E) 01:30:29 437.125 CW, 437.150 USB
KITSAT 1 20 Apr 01:28:21 01:32:11 14° 98° (E) 01:36:01 435.175 FM
Oscar 16 20 Apr 01:33:13 01:36:34 17° 90° (E) 01:39:54 437.025 USB, Beacon 2401.1428
OPAL 20 Apr 01:43:03 01:47:10 26° 60° (ENE) 01:51:22 ?
PCSat 20 Apr 01:50:23 01:55:41 54° 307° (NW) 02:01:01 145.825 MHz
SO-50 20 Apr 02:02:04 02:04:36 15° 250° (WSW) 02:07:08 436.795 FM
Uribyol 2 20 Apr 02:09:07 02:12:45 19° 91° (E) 02:16:21 436.500 FM
UOSAT-12 20 Apr 02:40:24 02:45:09 79° 236° (SW) 02:49:50 437.025 FM, 437.400 FM
Gurwin Techsat 1B 20 Apr 02:45:55 02:48:15 13° 87° (E) 02:50:34 435.225 FM
AO-27 20 Apr 02:48:44 02:53:38 41° 98° (E) 02:58:29 436.795 MHz FM
Sapphire 20 Apr 02:50:14 02:54:39 25° 319° (NW) 02:59:05 437.095 MHz 1200 baud AX-25 AFSK
ITAMSAT 1 20 Apr 02:59:13 03:04:15 50° 100° (E) 03:09:16 435.822 SSB
AO-Echo 20 Apr 03:01:07 03:05:39 41° 98° (E) 03:10:05 ?
Oscar 19 20 Apr 03:02:48 03:08:02 84° 286° (WNW) 03:13:14 437.125 CW, 437.150 USB
Oscar 16 20 Apr 03:11:14 03:16:25 67° 288° (WNW) 03:21:33 437.025 USB, Beacon 2401.1428
KITSAT 1 20 Apr 03:18:04 03:26:05 69° 118° (ESE) 03:34:10 435.175 FM
OPAL 20 Apr 03:21:00 03:25:49 46° 259° (W) 03:30:44 ?
TMSAT-1 20 Apr 03:32:15 03:36:33 25° 93° (E) 03:40:49 436.925 FM
PCSat 20 Apr 03:37:32 03:40:22 14° 330° (NNW) 03:43:13 145.825 MHz
Uribyol 2 20 Apr 03:47:32 03:52:38 60° 289° (WNW) 03:57:43 436.500 FM
AO-7 20 Apr 03:54:05 03:58:05 14° 86° (E) 04:02:03 29.400 - 29.500 MHz
JAS-1B 20 Apr 03:54:13 03:58:12 19° 91° (E) 04:02:15 435.800 - 435.900 CW/SSB
Gurwin Techsat 1B 20 Apr 04:23:36 04:28:57 88° 285° (WNW) 04:34:15 435.225 FM
UOSAT-12 20 Apr 04:23:44 04:24:29 10° 254° (WSW) 04:25:14 437.025 FM, 437.400 FM
AO-27 20 Apr 04:28:35 04:32:59 29° 296° (WNW) 04:37:23 436.795 MHz FM
ITAMSAT 1 20 Apr 04:39:21 04:43:28 24° 298° (WNW) 04:47:33 435.822 SSB
AO-Echo 20 Apr 04:40:21 04:44:14 25° 296° (WNW) 04:48:02 ?
Oscar 19 20 Apr 04:44:07 04:46:35 14° 304° (NW) 04:49:03 437.125 CW, 437.150 USB
Oscar 16 20 Apr 04:53:33 04:54:48 11° 306° (NW) 04:56:03 437.025 USB, Beacon 2401.1428
Uosat F 20 Apr 04:58:24 05:03:19 53° 101° (E) 05:08:11 435.120 FM
TMSAT-1 20 Apr 05:11:38 05:16:42 48° 291° (WNW) 05:21:46 436.925 FM
KITSAT 1 20 Apr 05:14:42 05:22:06 37° 321° (NW) 05:29:32 435.175 FM
JAS-1B 20 Apr 05:43:50 05:49:26 60° 290° (WNW) 05:55:09 435.800 - 435.900 CW/SSB
AO-7 20 Apr 05:44:02 05:52:21 70° 106° (ESE) 06:00:39 29.400 - 29.500 MHz
STRAND 1 20 Apr 06:00:24 06:04:55 33° 66° (ENE) 06:09:27 ?
Gurwin Techsat 1B 20 Apr 06:05:21 06:08:09 15° 304° (WNW) 06:10:56 435.225 FM
Uosat F 20 Apr 06:37:58 06:41:45 22° 298° (WNW) 06:45:31 435.120 FM
